mattdh12's sites:

title views votes rating creation
?mj visits quiznos 2,678 52 (4.31)  2014-10-14
?conan news 2,135 63 (3.97)  2013-04-01
?roulette 7,407 99 (4.49)  2013-01-06
?my new text message notification sound 1,331 36 (3.81)  2012-07-22
?bob dole gets a haircut 3,764 77 (4.12)  2011-07-18
?tampa bay opening day 1,633 42 (4.29)  2011-04-12
?clock tower ringing OF THE FUTURE 3,115 38 (4.21)  2010-11-05
?record sounds: the record 1,577 34 (4.29)  2010-04-07
?winston churchill revenge part 2 - WINSTON CHU... 1,118 26 (4.35)  2009-10-24
?winston churchill revenge part 1 - WINSTON CHU... 1,578 22 (4.18)  2009-10-24
?Homeless People HATE the Super Bowl 1,239 56 (4.34)  2009-09-02
?tourney3: cone n jokes for the metal demographic 1,223 27 (4.56)  2009-07-26
?tourney3: shakespeare's forgotten last dram... 2,899 75 (4.07)  2009-07-16
?Lady Gaga - Poker Face (a Kevin Federline remix) 7,063 72 (3.97)  2009-03-22
?fight themed ytmnd for the photoshop tournament c... 1,333 44 (4.20)  2009-01-18
?(nsfw) 2008 yelling bee 3,882 170 (4.00)  2008-11-16
?mario makes a sandwich 26,249 760 (4.26)  2008-08-13
?best ytnmd ever 5,483 148 (4.49)  2008-07-14
?3:00 drinkin dat soda 1,429 45 (4.22)  2008-06-02
?(nsfw) idiot hallo"weiner" "tps&quot... 4,331 125 (3.90)  2008-05-29
?mitch hedberg "moves tha crowd" (with l... 2,072 45 (4.31)  2008-04-22
?Tiger Woods Putt To Win Arnie Palson Tourname... 5,049 61 (4.16)  2008-04-03
?"u"tube duel 2,097 99 (4.01)  2008-03-03
?work safety 5,072 218 (4.14)  2008-01-20
?shaq gives birth 10,530 335 (4.12)  2008-01-01
?guy who milks cows grabs the wrong bucket and a... 3,378 87 (4.21)  2007-12-17
?raige aganest the machines final concert [full video] ... 1,144 40 (4.13)  2007-12-09
?trebeks thanksgiving 1,289 45 (4.11)  2007-11-23
?shaq zone 33,609 980 (4.42)  2007-11-12
?Part 3: "Funny Show: The Show": Epis... 653 28 (4.21)  2007-11-05
?Part 2: "Funny Show: The Show": Epis... 654 24 (4.17)  2007-11-05
?Part 1: "Funny Show: The Show": Epis... 2,385 85 (4.21)  2007-11-05
?the patty melt song 598 21 (3.76)  2007-10-18
?Mario Gets Revenge On Neo 1,343 47 (4.06)  2007-10-15
?HOOOOOOOONK! OOOOOOOOH! 1,663 46 (4.39)  2007-10-12
?(nsfw) kramer gets the wrong script but it doesnt m... 6,078 114 (4.03)  2007-10-06
?[b](nsfw)[/b] Alternate Ending to the Hit Film "... 22,426 91 (4.15)  2007-09-21
?PART 1: BEST BEATS (i win, best cannot be BE... 588 32 (4.09)  2007-09-13
?tight 748 24 (3.83)  2007-09-08
?Sp"y": "der man" 4 IN 3-D 959 25 (4.28)  2007-08-25
?Your Mom ft. Dyslexia - Light My Fire [LIVE] 957 45 (3.89)  2007-08-19
?scene from ""A Jerk"" 692 29 (3.97)  2007-08-18
?doctor gets sunburned and gives sun a "taste... 3,527 156 (4.07)  2007-08-09
?bob barker as a contestant on the new price is right 6,068 80 (4.01)  2007-07-17
?captain jean luc picard plays 3D Pinball for Window... 5,667 69 (3.99)  2007-07-08
?cant brake treadmill guys stride 916 27 (3.30)  2007-07-03
?(nsfw) blank space 2,424 76 (3.99)  2007-06-29
?exciting infinite lap race 785 25 (4.04)  2007-06-12
?funky furniture 1,586 89 (3.83)  2007-06-09
?a biker jumps too far 1,237 54 (4.17)  2007-05-25
?Ending to Se7en in German (with subtitles) 1,232 33 (4.00)  2007-05-18
?carlos mencia steals from websters joke book? 3,696 35 (4.11)  2007-05-12
?a plate fight for the ages 2,251 37 (3.89)  2007-05-07
?my title was too long so i put it in the description 11,557 209 (3.89)  2007-05-06
?YTMND.dot.fce 1,063 63 (3.89)  2007-05-02
?(nsfw) jared does the 30 second version of a comm... 3,373 107 (3.96)  2007-05-01
?extreme street jumping with big daddy gramps 922 17 (3.88)  2007-04-28
?put hat on "head" 729 34 (4.15)  2007-04-11
?pizza guy performs coltrane but is blWHOAn awa... 3,632 44 (4.25)  2007-04-10
?mitch hedberg says some words but the crowd doe... 1,133 30 (3.57)  2007-04-04
?(nsfw) i get my first birdie in tiger woods 2007 and fe... 3,596 57 (4.05)  2007-04-04
?Photoshop Contest 1,724 40 (3.73)  2007-03-28
?chief (updated title, no longer says dew army in par... 856 29 (3.90)  2007-03-25
?(nsfw) customer tries to order bread but the waiter ... 2,638 37 (3.92)  2007-03-21
?We just might be trapped 820 27 (3.67)  2007-03-19
?my grandpa experiments with a snowy sandwich be... 2,897 38 (3.89)  2007-03-18
?If the Movie Speed was Realistic 1,072 37 (4.14)  2007-03-13
?Comedy General Hospital with Major Budget Cuts In... 868 31 (4.03)  2007-03-07
?Picture Time at the Library 766 35 (3.49)  2007-03-05
?I AM GOING TO SUE YOU'R CAT!!! a dra... 3,605 41 (3.39)  2007-03-04
?My Balloons and Me 996 39 (4.31)  2007-02-26
?Macromedia Flash Noise Tutorial 2,630 61 (3.85)  2007-02-21
?A NEW FAD SITE LOL FOR THE NEW FAD 1,084 52 (3.94)  2007-02-20
?My Favorite Kill Bill Scene 3,148 76 (4.13)  2007-02-16
?(nsfw) AAHHK 1,455 34 (4.24)  2007-02-15
?LAUGHING CLOCK NO WAY LOL NOT FAKE 1,372 39 (3.82)  2007-02-13
?Bart's Mortal Enemy 16,225 357 (3.79)  2007-02-11
?THE AXE EFFECT 766 18 (3.61)  2007-02-11
?scanimation 764 37 (4.16)  2007-02-09
?THREE MINUTE COMIXS 1,155 32 (4.06)  2007-02-07
?THE SECOND FINAL BATTLE 1,327 32 (4.09)  2007-02-06
?Popular 812 33 (4.15)  2007-02-04
?Funeral 1,664 45 (4.16)  2007-01-28
?local on the 8s? more like...local voat 5 on this ytm... 1,157 61 (3.77)  2007-01-27
?(nsfw) ATTENTION YTMND: NSFW 13,796 65 (3.92)  2007-01-21
?THE FIRST FINAL BATTLE 986 30 (3.93)  2007-01-21
?fresh prince of square wave 1,443 44 (3.73)  2007-01-20
?will smith says uh what woo and haha a lot 23,944 466 (4.24)  2007-01-18
?SWEET SASSY MOLASSY 985 36 (3.64)  2007-01-17
?three things happen: jorge plays fast money, you v... 1,401 64 (4.14)  2007-01-15
?FUNNIE BAGELS WITH ZAZAZA ADDED LOL ... 2,885 37 (3.76)  2007-01-15
?Teenage Mustard Ninja Jorge Busch and Aleksand... 1,760 85 (3.76)  2007-01-06
?The World is Flat 8,711 463 (4.33)  2007-01-03
?NEW SITCOM 1,059 26 (3.92)  2007-01-02
?PlREEEEEEEEEase. KHAN am NOOOOOOOgof... 1,031 40 (3.65)  2006-12-29
?oj simpson was GUILTY 824 23 (3.52)  2006-12-28
?these rocket balloons are perfect, what more could... 2,141 27 (4.04)  2006-12-23
?(nsfw) jon carrie atemps to billd a grand carrielition in... 3,995 136 (3.69)  2006-12-22
?some person enjoys a ytmnd of an object without a ... 1,132 41 (3.80)  2006-12-21
?test site 932 35 (3.97)  2006-12-20
?Trick Shot Magic 950 33 (3.52)  2006-12-17
?WHAT WAS I THINKING? 1,661 65 (4.25)  2006-11-29
?famly um uh feyoud 772 30 (4.03)  2006-11-28
?(nsfw) DANCING SUNGLASSES 1,225 37 (3.70)  2006-11-28
?SHE FORGOT MY WATCH 681 32 (3.94)  2006-11-27
?jon carrie plays grand carrielition sweeper but loses ... 1,603 82 (3.98)  2006-11-24
?Jared is Gaining Weight Again 7,622 301 (3.87)  2006-11-23
?Pancake Fiction (Part 2) 906 20 (3.75)  2006-11-22
?Pancake Fiction (Part 1) 951 19 (4.05)  2006-11-21
?i put tons of effort into this 504 24 (3.75)  2006-11-20
?Jorge busch wants to buy a grand carrielition, but v... 1,349 87 (3.48)  2006-11-19
?A Very Square YTMND 677 31 (3.32)  2006-11-18
?PS3 on ebay will retail for... 7,224 86 (3.78)  2006-11-17
?Future Crocodile-O'Brien doesn't care... 1,002 41 (3.90)  2006-11-14
?Link finds a... what the hell is that? 1,359 36 (3.67)  2006-11-14
?Conan is...A TALK SHOW HOST 1,905 55 (4.07)  2006-11-11
?the guy who plays khan gets sick so borat plays hi... 3,014 36 (3.89)  2006-11-11
?WHICH CLOCK IS REAL 10,972 301 (3.31)  2006-11-09
?MY ENTRIE #! FOR BORAT CONTEST 1,569 48 (3.71)  2006-11-08
?HUGE TRUCK CRASH 2,231 71 (4.18)  2006-11-05
?EARTHQUAKE but some fat guy is too hungry to ... 733 21 (3.71)  2006-11-03
?Dean Wave 11,442 495 (4.35)  2006-11-01
?NBA Jam Returns 3,092 87 (3.83)  2006-10-31
?COOL MUSIC VIDEO 782 24 (3.88)  2006-10-30
?test site dont vote 1,100 42 (3.83)  2006-10-29
?how to eat an air conditioner in under 62 seconds 2,245 82 (3.32)  2006-10-29
?jorge busch shoots a +5 and at the same time teach... 1,442 84 (3.95)  2006-10-27
?KHAN-KHAN DANCE 792 45 (3.16)  2006-10-24
?Skating 669 23 (3.96)  2006-10-24
?(Voated5) How to prank Jon Carrie 19,119 571 (3.75)  2006-10-22
?Jared interviews some guy 1,108 56 (3.93)  2006-10-20
?Jared is DISGUSTED by the amount of grams 2,793 137 (3.93)  2006-10-20
?What Shaq Thinks of Kobe's CD 1,541 21 (3.76)  2006-10-19
?Alligator ate my Playmobil 1,102 33 (3.79)  2006-10-17
?SO UGLY 660 22 (3.68)  2006-10-17
?mitch hedberg tells a funny joke and the audience k... 1,333 42 (3.31)  2006-10-16
?George's Answering Machine 811 44 (3.75)  2006-10-15
?Low Budget Movie 672 28 (3.71)  2006-10-15
?ITS A TTSRAP 888 27 (4.11)  2006-10-15
?Too Much Orange Soda 1,073 46 (3.67)  2006-10-13
?KHAAAAAAAAAAAAAAAAAAAAAAAAA... 2,773 61 (4.13)  2006-10-11
?how jared really did it 1,090 34 (3.26)  2006-10-10
?Workout 993 42 (3.83)  2006-10-08
?Home Alone 5 Trailer 3,533 81 (3.49)  2006-10-07
?B.W.A. - Forgot the Polend (but not the 5s) 792 48 (3.73)  2006-10-04
?These Pretzels are Making You VOAT 5 1,580 101 (4.00)  2006-10-01
?My Relaxation Page 1,242 64 (3.61)  2006-09-29
?Jump Rope 1,298 39 (3.79)  2006-09-25
?Khan Goes to the Zoo 697 29 (3.48)  2006-09-19
?polend price is rong (part 5 of 5) 2,011 95 (3.98)  2006-09-15
?jon carrie forgot polend because of football 1,365 91 (3.62)  2006-09-09
?A New Kind of Tool 1,161 25 (3.52)  2006-09-07
?Scarface (short version) 954 27 (3.15)  2006-09-05
?Mr. Sparkle Song 4,347 49 (3.92)  2006-09-03
?(nsfw) Poland Bulls win at the buzzer (vote 5 for fa... 1,837 83 (3.89)  2006-08-29
?We're going to Poland, PLEASE VOT... 2,435 122 (3.26)  2006-08-20
?aliens polandize the world and make you vote 5 1,216 59 (3.63)  2006-08-19
?Federline Remembered Poland 3,647 113 (4.03)  2006-08-18
?Will Smith Gets 'Jiggy' with 'It&... 1,432 48 (3.46)  2006-08-13
?ce ytmnd est français 954 32 (2.16)  2006-08-12
?Daddy Jackson 739 28 (3.54)  2006-08-10
?The Who feat. Arnold - Who Are You? 17,540 441 (4.07)  2006-07-28
?Hippie Phil 5,162 39 (4.26)  2006-07-28
?Saget performs on AFV 1,247 38 (3.76)  2006-07-27
?Arnold is too strong for Price is Right 18,525 411 (4.02)  2006-07-25
?Your legacy? 1,701 38 (3.79)  2006-07-16
?What's the worst that could happen? 1,112 51 (3.45)  2006-07-16
?RollerCoaster Diecoon 13,469 502 (4.16)  2006-07-13
?Heffer Has No Manners (view in ie) 1,284 29 (3.38)  2006-07-12
?Tightening up graphics is a bad job 1,921 41 (3.61)  2006-07-05
?The REAL Reason the Great Wall of China was B... 17,140 500 (4.07)  2006-07-04
?Die Hard: With a Censorship 14,311 459 (4.20)  2006-04-28
?snakes on my burger 62,846 1,961 (4.32)  2006-04-03
?E.L.: Flying Lobsters 1,290 72 (3.38)  2006-03-31
?Wheres the cake? 1,520 62 (3.32)  2006-03-18
?spy on your friends! 25,363 865 (4.22)  2006-01-15
?Conan Grew a Mustache 2,498 59 (3.58)  2006-01-07
?Will Smith Buys Cheese 3,959 75 (3.73)  2005-12-27
?BINGO BANGO BONGO 2,076 49 (3.43)  2005-12-17
?YUO KHAN DO IT 5,688 105 (3.85)  2005-12-06
?"Im black yall" 8,465 83 (3.72)  2005-11-22
?push it 2,954 49 (3.12)  2005-10-05
?no idea 1,099 45 (3.02)  2005-09-24